Wind_Speed
15 18 21 25 26 24 21 21 22 23 23 20 18 17 15 16 19 19 19 20 20 24 31 36 45 50 45 44 45 44 47 49 48 47 45 44 40 37 37 35 36 39 40 38 34 29 26 28 32 37 36 33 29 26 24 19 16 16 18 17 14 12 12 13 14 14 13 11 12 13 13 12 11 9 6 5 7 9 11 12 12 11 11 11 12 13
15 20 24 24 22 19 17 17 17 17 19 21 23 23 20 20 22 20 18 21 21 23 30 35 41 46 43 41 43 43 47 51 51 49 48 46 43 41 38 35 35 38 43 43 36 28 25 28 35 38 36 33 31 29 25 20 17 18 19 18 16 14 14 14 14 14 13 11 11 13 14 13 13 10 8 7 8 10 12 13 13 12 12 12 13 14
15 21 24 21 17 17 16 17 17 16 16 16 18 21 23 25 26 24 21 20 19 19 27 35 39 42 39 38 42 43 44 51 53 51 50 48 46 45 42 38 34 35 42 45 38 30 28 29 35 40 38 33 32 31 27 23 20 20 19 19 18 16 13 14 14 14 12 10 11 13 13 14 14 12 10 10 10 11 13 13 13 13 12 13 13 14
15 19 20 17 16 17 18 17 16 16 17 17 17 18 21 24 24 25 25 21 18 18 22 31 40 44 39 34 40 45 45 48 51 51 49 50 49 47 45 41 37 37 39 39 36 34 32 30 33 40 40 35 33 33 30 27 23 21 20 20 20 16 13 13 13 12 11 10 11 11 13 15 16 15 14 12 12 12 12 13 13 12 13 13 14 14
18 18 15 15 15 17 19 19 17 16 17 18 19 19 21 22 21 24 26 24 22 22 24 25 31 42 45 37 35 42 48 49 49 51 50 50 50 49 47 44 41 41 42 38 35 34 33 31 31 37 41 37 35 35 32 28 25 23 22 22 20 15 13 14 13 12 11 11 12 13 14 15 16 16 15 13 11 11 11 12 12 12 13 14 15 15
20 17 14 15 15 16 18 19 18 15 16 18 19 21 21 21 20 21 23 22 19 22 28 23 18 25 37 41 38 37 43 50 51 51 52 51 49 47 47 45 43 44 44 42 39 36 32 30 30 35 42 41 37 34 31 29 28 26 25 23 20 17 15 15 15 14 13 14 15 17 16 16 16 16 15 13 12 12 13 14 14 15 15 15 15 16
21 17 15 15 14 15 16 18 19 16 14 16 19 20 19 17 16 17 19 17 12 18 28 22 11 12 17 28 37 36 38 46 52 53 52 53 51 47 45 44 43 44 44 42 42 41 32 27 29 32 38 40 38 34 30 30 30 28 27 25 21 18 16 17 17 16 15 16 17 17 17 16 16 16 16 15 14 14 15 17 17 17 17 16 16 16
14 10 9 10 10 13 16 19 19 16 15 17 19 17 15 14 12 12 14 15 17 23 29 24 16 14 13 19 28 33 37 42 49 55 55 54 53 51 48 46 45 45 46 44 43 45 37 29 30 30 30 33 36 36 34 33 31 30 30 26 23 20 19 18 17 16 16 16 18 18 18 17 16 16 16 16 15 15 17 18 18 18 17 16 16 15
13 10 10 12 12 13 16 16 13 12 15 19 17 13 13 13 12 12 12 13 18 20 25 30 24 12 13 24 27 25 32 40 45 53 58 57 56 56 54 52 50 46 45 45 45 47 42 35 33 33 29 27 31 37 37 35 34 34 33 29 25 23 21 20 18 16 16 17 19 20 20 19 17 17 17 18 18 17 18 18 18 18 17 16 15 14
22 20 19 20 20 20 18 15 12 11 16 19 16 13 14 14 13 14 13 15 17 13 19 33 29 12 7 24 32 27 30 39 44 51 58 59 58 57 56 55 53 49 45 43 43 44 44 41 37 36 34 29 28 33 36 38 39 37 36 31 27 24 22 21 19 18 18 19 20 22 21 19 17 17 18 19 19 17 18 18 17 17 16 15 14 13
26 26 26 26 26 25 22 19 17 15 16 18 16 14 15 15 15 15 13 17 14 8 20 35 33 19 9 16 30 34 35 38 42 47 54 59 60 58 56 56 55 52 49 45 43 41 41 43 40 39 39 34 30 31 34 40 42 39 37 32 28 26 24 22 22 21 20 21 22 23 22 20 18 18 18 19 19 17 17 17 16 16 15 14 14 14
28 28 29 30 29 27 26 25 23 19 17 17 16 15 14 13 13 12 12 15 8 5 22 36 33 24 16 16 27 36 40 40 37 41 49 55 59 60 57 56 56 55 53 50 47 44 42 44 44 43 42 35 31 32 33 38 43 42 38 33 29 27 25 24 24 24 24 23 23 23 22 20 19 19 18 19 19 17 16 16 16 17 16 16 15 15
30 31 30 30 30 29 29 29 27 23 21 20 19 16 9 4 4 4 5 7 5 11 27 32 26 20 22 26 31 36 42 42 38 37 43 51 55 59 59 57 56 56 55 53 49 47 46 46 47 46 44 38 33 32 32 37 43 43 39 34 30 27 26 26 27 27 26 25 25 24 23 21 20 20 19 20 20 18 17 17 17 18 18 18 17 16
24 27 26 26 28 28 29 31 30 25 21 21 23 20 10 3 1 2 3 3 4 15 28 31 20 14 21 28 30 39 44 43 42 39 38 44 51 57 59 58 58 57 57 56 53 49 47 47 49 49 46 40 34 31 32 36 41 43 39 34 29 27 27 29 29 29 28 27 26 25 23 22 21 20 19 20 20 18 18 18 18 18 19 19 18 17
15 18 17 17 19 21 26 32 32 26 20 18 20 20 17 10 4 2 3 2 4 11 23 26 14 6 14 18 21 37 47 42 43 44 39 38 45 53 57 57 59 59 58 58 57 52 48 46 49 51 48 42 36 32 32 34 39 42 38 33 30 29 30 31 32 31 29 28 28 26 24 23 21 21 20 21 22 19 19 19 18 18 19 20 19 18
12 15 14 12 13 13 16 20 22 23 21 20 17 16 20 20 14 9 10 11 8 7 11 16 12 10 16 16 16 28 43 44 42 45 46 41 39 45 52 56 58 60 60 59 59 55 50 47 47 50 48 43 38 36 35 34 35 37 35 32 31 31 33 34 33 32 30 30 28 26 25 23 22 22 21 22 23 21 20 19 18 19 20 21 20 18
9 13 12 7 8 8 8 9 11 18 18 17 20 22 22 21 19 14 14 19 14 5 5 10 14 20 23 22 21 23 32 42 42 41 46 48 43 41 46 52 56 59 60 60 60 57 52 48 47 49 48 43 39 41 41 38 36 34 33 33 33 34 36 36 34 33 32 31 28 26 25 24 23 23 22 22 23 21 20 19 19 20 21 21 20 19
12 18 17 11 10 7 6 7 9 16 16 14 19 26 24 18 17 14 8 9 7 2 6 11 14 20 20 20 24 25 24 32 40 41 41 46 50 47 45 47 52 56 57 58 59 56 53 50 49 50 49 44 41 42 41 39 38 36 35 36 36 37 37 36 35 35 34 31 28 27 25 24 24 23 22 23 24 23 21 20 20 21 21 22 20 19
11 15 15 11 12 11 10 11 11 14 17 17 15 19 20 13 10 12 8 4 4 1 4 10 14 18 22 21 23 27 28 31 40 43 40 42 48 51 50 48 48 51 54 56 57 57 55 54 53 53 49 44 43 42 40 38 39 38 38 39 38 37 36 36 36 35 35 31 28 26 26 26 25 23 22 25 26 24 23 21 21 21 22 22 20 19
9 9 9 8 8 8 10 15 17 15 15 17 16 17 19 13 6 9 9 6 5 2 2 6 8 10 17 21 23 26 29 33 41 44 41 41 43 46 51 52 50 50 52 53 55 56 55 55 54 51 47 44 44 42 41 41 41 40 40 40 39 36 36 36 35 35 35 32 29 28 28 28 27 25 24 26 27 26 23 21 22 22 23 22 21 20
12 11 12 12 9 7 9 14 18 18 15 16 20 23 23 18 12 11 12 12 9 3 2 3 4 7 12 15 17 21 24 30 37 39 39 39 39 40 44 49 52 51 51 52 54 54 53 52 52 49 43 41 43 43 42 41 40 40 41 40 39 38 37 36 35 35 36 33 31 30 29 29 28 26 25 28 28 27 24 23 23 23 23 23 21 21
14 15 17 20 18 15 12 12 14 17 17 16 21 26 23 18 15 9 7 13 15 8 4 3 3 9 14 12 10 13 18 23 28 32 33 34 35 37 39 42 48 51 53 54 53 53 53 52 51 48 42 39 41 42 42 40 38 40 41 40 39 40 39 37 36 36 36 34 32 31 30 29 28 27 27 29 29 28 25 24 25 25 24 23 22 21
14 15 19 22 23 20 15 13 15 17 19 19 19 23 22 19 18 13 6 11 14 10 9 4 3 12 20 17 12 11 13 16 20 24 29 29 30 37 41 41 43 47 53 56 55 53 55 55 52 48 44 41 40 40 40 40 38 39 39 39 40 42 40 38 37 37 36 35 33 32 30 29 29 28 29 30 30 29 26 25 26 25 25 23 22 22
14 14 17 20 23 20 15 14 17 19 19 19 20 22 22 20 21 19 16 16 12 9 10 1 3 16 26 23 20 16 12 13 16 15 22 27 29 34 41 44 43 44 48 53 57 57 57 55 51 47 45 43 41 40 39 40 40 39 39 39 40 41 40 38 38 38 36 35 34 33 31 30 30 29 31 31 31 30 27 26 26 26 25 24 23 23
11 13 12 11 11 8 5 8 14 19 20 19 21 24 22 20 21 20 20 18 11 12 12 2 4 23 29 25 24 20 16 15 13 9 13 21 24 26 34 44 47 46 46 48 54 57 57 56 52 47 45 44 43 42 40 40 41 41 40 39 40 40 39 38 38 39 37 35 34 34 33 32 31 31 33 32 32 32 28 26 26 26 25 24 23 23
10 12 11 6 3 1 2 3 7 15 20 20 21 24 23 22 22 20 19 16 11 12 15 10 14 27 27 23 24 21 18 17 13 10 10 14 19 22 28 39 46 46 45 46 50 52 53 55 54 49 43 42 43 44 42 41 42 42 41 40 40 40 38 37 37 38 37 35 35 35 34 33 32 33 34 32 33 33 29 26 26 25 25 24 24 24
10 11 11 9 8 7 3 4 7 10 16 21 24 25 24 22 22 23 24 22 17 15 17 16 16 23 23 22 21 17 13 12 10 9 9 13 18 21 26 34 41 42 40 42 47 49 49 52 53 50 44 41 43 44 44 43 42 42 41 39 39 39 39 37 36 37 37 36 35 35 34 34 33 34 34 33 34 34 30 27 26 25 25 25 24 25
13 16 14 13 10 8 7 5 7 8 14 21 24 24 23 20 22 29 31 28 22 16 14 15 15 20 23 22 19 14 11 11 12 12 11 13 17 22 28 32 36 38 35 36 42 48 51 52 52 50 46 43 44 46 46 43 42 41 40 37 37 38 37 35 36 37 37 36 36 36 34 33 33 34 34 34 36 35 32 28 26 26 26 26 25 26
14 18 16 15 10 7 6 6 9 10 14 19 20 21 23 21 24 31 31 27 24 18 15 17 18 22 24 20 17 17 16 17 17 15 13 13 17 22 30 33 32 33 32 32 36 44 50 52 50 49 47 45 46 47 46 43 42 42 40 38 37 36 34 33 35 37 37 36 36 35 34 33 34 35 34 35 37 37 34 30 28 27 27 26 26 27
13 14 13 12 10 9 7 4 10 11 13 17 19 20 21 23 26 28 27 23 23 21 21 22 23 25 23 18 18 20 21 22 19 16 15 14 17 19 25 31 32 31 30 29 33 38 44 47 49 49 47 45 47 48 46 45 44 42 40 37 36 35 33 33 34 35 35 35 35 35 34 34 35 35 34 35 37 37 35 31 29 28 27 27 27 27
10 12 11 11 15 14 10 5 7 11 12 14 17 18 18 22 25 26 26 24 22 22 21 22 26 28 21 17 20 22 20 20 17 14 14 14 15 16 19 26 30 30 29 27 28 30 33 39 44 46 45 43 45 46 45 46 45 42 38 36 35 34 33 34 35 34 34 34 35 35 35 35 36 35 34 35 37 37 35 31 30 29 27 28 28 28
10 13 11 12 17 16 14 14 8 8 13 13 13 14 15 18 20 21 23 24 23 23 22 21 26 27 19 15 19 18 14 14 13 11 12 12 11 11 12 20 26 28 28 25 23 22 23 29 35 40 41 40 40 41 42 43 43 40 36 34 35 34 33 34 34 33 33 33 34 35 35 36 37 35 34 35 36 36 34 31 30 29 28 28 29 29
10 12 10 12 14 14 17 17 5 5 7 9 9 11 15 16 17 17 19 21 21 22 23 23 26 26 18 14 17 14 9 9 9 9 11 9 5 8 7 12 19 24 26 24 22 20 19 22 26 29 33 35 37 39 40 40 38 35 33 33 34 33 32 33 33 32 32 33 35 36 36 36 37 36 35 35 36 36 34 32 31 30 28 28 29 30
10 12 11 11 11 15 20 14 5 6 2 5 5 6 12 15 15 17 19 20 20 19 20 23 25 22 15 13 17 17 11 8 8 8 7 4 7 12 9 7 14 20 24 23 23 20 19 21 23 26 29 32 34 36 37 36 34 31 30 31 31 30 30 30 31 31 32 34 35 36 36 37 38 37 36 36 37 36 34 32 31 30 29 28 29 31
13 15 14 11 12 17 18 10 5 1 3 8 4 4 5 10 11 16 20 21 20 18 18 21 23 19 15 16 20 20 13 7 7 5 3 1 8 12 11 3 12 19 22 24 23 21 20 22 24 27 28 28 29 30 30 30 29 28 29 29 29 28 29 30 30 30 31 33 34 36 37 37 38 38 38 38 38 36 35 33 32 32 31 29 29 31
13 14 16 16 14 13 14 9 2 4 5 5 4 6 2 3 6 12 17 20 22 19 17 20 22 23 23 22 22 19 15 9 7 5 3 2 6 10 11 4 8 16 20 22 22 21 22 24 25 25 25 24 24 25 25 26 27 27 28 28 28 29 28 28 28 28 29 31 32 34 35 36 37 38 38 38 38 36 35 34 32 32 32 30 30 32
11 12 14 14 10 10 14 14 9 6 4 3 7 10 13 14 9 6 10 15 20 18 17 19 22 25 27 26 22 17 16 13 8 5 3 5 6 12 12 9 3 7 14 19 20 19 22 25 25 22 21 22 24 26 26 27 27 26 26 27 28 28 27 27 27 26 27 29 30 32 33 35 36 37 37 37 37 36 36 35 33 32 32 32 32 32
8 11 11 10 10 13 15 12 7 4 4 6 12 16 20 23 16 5 7 10 13 13 14 17 21 26 27 25 21 16 13 10 5 4 6 9 5 11 12 12 10 7 7 12 17 19 20 22 23 22 21 22 24 26 26 27 26 26 27 27 27 27 28 29 29 27 27 27 28 30 32 34 35 36 37 37 37 37 37 36 35 34 33 33 33 33
8 9 9 9 11 13 12 7 3 3 4 9 17 19 21 25 18 4 4 7 10 13 14 15 18 22 24 24 21 15 11 7 4 5 5 11 3 9 11 14 11 9 9 7 10 15 18 20 21 20 20 21 21 22 23 22 23 24 25 25 25 26 28 30 31 31 30 28 28 29 31 34 35 36 37 37 37 37 36 35 36 35 34 34 33 32
11 10 8 9 11 13 12 8 6 7 8 11 18 20 18 18 13 3 3 4 7 12 16 15 15 17 20 23 20 13 8 6 2 4 5 8 9 1 8 13 10 6 7 8 7 7 11 14 15 15 17 20 21 22 21 21 21 22 23 24 25 26 26 28 31 34 33 31 30 31 31 33 34 35 36 37 37 36 35 34 35 35 34 34 32 31
16 13 9 12 15 15 13 10 11 13 12 13 19 20 15 10 6 4 4 5 5 8 11 14 16 17 17 15 15 12 9 6 3 4 5 6 9 7 5 10 10 6 3 4 5 7 8 7 7 9 13 18 22 23 24 26 27 26 25 27 29 29 29 30 31 31 31 31 32 33 32 32 32 32 32 34 35 34 34 34 35 34 35 35 33 31
18 17 14 15 17 16 14 14 14 11 11 17 21 18 13 9 7 7 8 9 8 6 6 9 13 19 20 13 10 10 9 6 4 4 6 7 8 7 7 8 9 7 1 2 2 4 8 8 8 7 8 12 17 19 20 23 27 27 25 25 27 29 29 29 26 23 26 29 31 33 33 32 31 30 29 29 30 31 32 34 34 34 34 32 31 29
17 18 16 18 19 15 12 11 9 9 17 24 25 20 15 11 9 10 9 9 10 9 8 6 6 12 18 12 11 12 10 9 9 5 4 8 8 4 4 5 7 7 3 1 1 1 3 5 7 7 7 8 10 11 10 11 15 18 16 15 16 18 19 19 18 20 26 30 31 32 34 33 31 30 29 28 28 29 31 33 33 34 32 30 29 29
19 19 18 21 22 16 12 11 14 20 26 26 23 20 17 13 9 8 7 6 8 8 9 7 3 6 12 8 3 8 7 8 9 5 0 4 6 3 0 3 5 6 3 1 1 2 2 2 3 4 5 6 6 7 7 7 8 9 9 9 11 13 15 15 16 20 23 25 25 27 29 29 28 27 26 27 27 28 31 33 34 33 29 29 30 30
22 23 21 23 25 21 17 20 28 31 27 22 20 19 18 17 11 7 7 6 7 7 8 7 4 3 8 9 6 3 1 6 5 4 5 5 5 3 0 2 2 3 3 1 1 2 3 4 5 6 7 8 8 10 10 9 10 10 11 12 14 16 17 18 18 19 20 19 19 20 23 26 27 26 26 28 29 30 32 34 33 29 28 30 31 29
22 25 24 23 26 25 22 26 32 31 24 20 20 19 19 18 9 2 2 5 6 7 6 6 3 3 7 8 7 6 3 1 4 8 10 10 7 5 3 3 3 3 3 3 1 2 3 5 7 9 10 10 11 12 12 12 13 14 15 16 18 19 19 19 19 20 20 18 17 17 20 24 27 29 30 30 30 31 33 34 31 27 28 29 28 25
21 23 23 23 24 24 25 29 32 28 24 23 22 20 20 20 13 6 5 3 4 6 4 4 4 5 7 10 10 8 5 4 5 6 7 9 9 7 7 6 6 6 6 4 3 3 5 6 7 9 10 11 11 13 14 15 17 18 19 20 21 21 20 20 21 22 22 20 20 19 20 22 26 29 31 30 31 32 32 32 29 26 24 24 24 23
24 22 22 23 23 23 25 29 29 26 26 28 27 23 21 22 18 13 9 6 2 3 4 5 6 7 8 10 12 10 9 9 9 8 7 7 8 8 8 8 8 8 8 7 7 8 9 8 8 10 11 12 14 15 16 18 19 20 21 21 22 22 22 22 23 24 24 24 24 23 22 22 24 29 30 29 29 29 27 28 29 25 23 25 26 25
23 21 20 21 22 24 27 30 30 28 29 31 30 25 22 22 21 16 10 9 7 3 2 4 6 9 10 11 11 9 9 11 13 12 11 11 11 10 10 10 10 10 10 10 10 11 11 12 13 14 14 15 16 17 18 19 20 20 21 21 22 23 24 24 25 25 24 24 25 25 24 24 26 30 30 27 27 27 28 30 31 29 28 30 28 24
22 21 22 22 24 28 30 30 30 28 28 31 31 29 27 26 24 19 13 9 7 4 6 9 8 3 2 2 2 3 5 10 13 14 14 14 13 13 12 11 11 11 12 12 12 12 13 13 15 16 16 17 17 17 18 19 19 20 20 21 22 24 25 25 25 24 24 26 26 26 26 27 28 30 30 26 25 26 27 28 29 29 29 28 25 22
19 19 23 24 24 26 27 28 27 26 27 28 28 28 29 28 26 23 16 11 8 5 8 13 14 13 15 18 17 13 8 5 6 7 10 13 13 14 14 14 14 14 14 14 14 14 14 14 15 16 17 17 17 17 17 17 17 18 19 21 23 24 25 25 22 20 23 26 27 26 26 27 27 27 26 25 26 28 28 26 27 28 28 26 23 22
Wind_Direction
239 239 239 239 242 243 245 247 248 249 251 253 255 253 252 249 248 243 234 227 222 225 226 223 226 230 231 230 230 229 229 229 227 224 226 230 228 226 226 230 236 232 227 223 224 232 238 235 230 224 218 211 210 214 219 225 230 235 246 256 263 272 284 293 291 283 283 286 280 271 267 262 253 252 253 247 245 248 251 252 252 253 252 249 248 246
238 240 239 241 248 251 250 249 250 253 254 256 257 258 257 252 249 246 238 228 223 231 230 225 228 231 231 230 228 228 229 230 230 226 225 227 225 224 224 229 237 234 226 222 223 236 242 229 222 219 215 210 209 214 221 229 234 238 245 250 257 268 284 297 295 283 279 278 271 264 262 260 256 254 254 249 246 250 253 253 253 253 253 251 246 243
240 242 243 245 253 254 249 247 249 252 255 256 257 263 261 257 256 252 245 233 226 238 238 229 232 235 233 231 227 225 226 228 231 230 227 226 224 224 224 228 234 228 220 219 224 239 243 232 224 219 216 210 209 214 220 227 233 236 243 249 254 266 285 300 297 287 281 270 259 259 264 266 264 258 252 251 252 257 257 256 256 256 255 253 247 242
248 245 248 253 253 251 248 248 253 256 256 256 255 262 262 259 263 259 252 244 233 239 243 237 238 238 235 232 227 223 223 224 229 232 230 228 226 225 224 228 228 219 212 213 224 237 239 237 234 225 219 213 210 215 220 224 230 235 243 251 253 262 280 293 296 289 277 260 255 265 275 279 277 265 256 257 259 260 259 256 258 258 257 255 248 242
254 253 257 258 253 250 250 249 254 257 257 258 256 257 261 260 261 262 260 257 250 240 236 243 251 246 239 235 228 223 223 222 224 229 231 229 229 228 227 228 225 220 215 212 219 231 234 235 235 228 224 219 215 220 224 225 230 236 243 248 250 256 266 275 287 290 277 263 267 278 283 289 290 276 262 261 261 254 250 249 251 252 251 251 247 243
261 259 256 254 252 250 250 250 251 254 258 259 256 254 258 263 263 262 263 265 269 253 235 240 262 254 243 239 233 223 223 223 221 225 229 230 229 230 230 229 227 225 225 222 222 228 234 235 231 224 224 223 219 223 229 231 233 235 237 240 244 251 258 266 276 283 279 271 273 277 281 289 295 284 265 256 253 246 241 239 237 240 241 243 244 241
271 269 260 254 253 250 249 250 248 246 254 257 255 254 255 264 269 267 263 257 261 252 239 235 251 266 252 239 235 229 225 224 222 223 226 229 229 228 228 228 228 228 227 226 226 227 230 234 232 226 225 226 223 224 231 236 235 234 235 237 242 248 254 262 269 275 276 273 271 272 276 285 293 288 267 252 251 246 243 241 238 239 241 242 243 242
279 281 267 261 258 252 245 247 248 244 249 253 252 255 258 263 269 271 268 254 247 252 250 245 250 273 270 238 228 227 228 226 223 223 223 225 228 227 226 225 226 228 227 227 227 225 225 230 235 235 232 230 227 227 233 238 240 241 240 240 243 248 253 258 264 269 273 273 271 271 274 279 288 288 268 250 248 245 244 246 244 244 245 245 246 245
275 274 275 279 272 261 251 254 266 259 251 252 254 262 263 262 267 267 267 259 252 254 258 255 250 262 268 243 226 217 224 226 223 222 221 221 224 226 226 226 225 226 226 228 228 227 229 233 236 240 239 232 226 228 235 241 242 241 241 242 244 248 253 255 258 266 272 273 270 270 273 277 285 288 270 250 245 245 247 250 250 250 249 247 248 245
267 267 271 274 270 267 264 267 276 266 250 250 257 265 260 258 262 261 260 258 254 246 252 254 248 239 260 246 232 219 219 223 222 221 220 219 222 225 225 226 227 225 222 223 225 227 232 234 236 240 241 236 229 229 236 241 240 237 238 241 244 247 253 254 256 263 269 271 269 269 271 275 283 289 276 253 246 247 249 253 255 255 252 249 247 242
265 266 266 266 267 269 272 273 268 260 253 251 256 260 261 264 263 262 259 251 250 242 244 248 245 241 248 244 235 227 220 221 222 222 221 220 220 224 226 226 227 228 225 223 223 225 228 230 232 237 240 240 235 233 237 240 239 236 237 241 244 247 251 255 257 262 268 270 268 267 268 273 283 291 278 254 247 249 251 254 256 252 248 244 241 238
265 263 263 264 266 268 270 271 267 261 254 248 252 258 264 270 260 257 252 237 232 249 245 244 245 243 239 236 237 230 221 219 220 221 222 222 221 223 226 226 226 228 229 229 228 228 227 226 228 231 236 238 236 236 238 239 239 236 237 242 245 247 252 257 259 261 267 270 268 266 267 272 281 290 278 253 246 249 249 251 251 247 243 238 235 235
270 266 264 264 264 262 262 264 262 258 250 240 242 245 252 276 260 249 240 220 214 239 241 243 247 246 245 246 243 235 226 219 218 219 220 222 223 224 226 227 227 227 230 232 232 232 230 228 228 229 234 235 235 237 236 237 238 235 236 243 246 249 254 257 257 259 265 269 268 265 266 270 279 287 277 253 243 245 247 249 250 248 244 238 235 233
283 279 272 263 259 253 248 248 247 245 241 235 234 230 212 150 125 231 233 218 230 242 243 246 253 255 256 256 248 239 230 221 220 219 217 221 223 224 226 228 230 229 230 232 233 233 232 231 229 230 235 237 235 235 231 232 233 233 237 243 245 249 253 254 254 256 262 267 265 262 263 268 277 284 273 251 242 243 246 250 251 250 246 241 237 233
280 283 282 270 263 254 242 239 239 240 243 240 238 234 225 212 196 213 222 198 208 242 246 245 243 241 249 255 252 240 231 224 224 222 220 221 222 224 227 229 230 231 230 232 234 234 233 233 230 230 237 239 235 232 230 229 230 231 236 241 246 252 256 256 253 254 260 264 261 260 262 268 275 279 268 248 239 240 244 248 249 250 248 243 238 235
264 274 294 285 266 260 249 244 241 240 245 244 235 229 229 229 236 250 256 257 251 249 249 238 231 243 251 249 250 244 237 230 227 225 226 226 222 222 226 229 230 230 230 232 234 235 234 234 231 231 237 240 237 235 233 231 230 231 235 241 249 257 258 256 252 253 258 260 259 259 261 267 274 275 265 246 237 238 242 246 248 249 248 244 240 237
258 272 299 291 253 254 254 253 235 224 229 231 218 212 217 227 238 246 255 261 261 267 256 237 234 244 252 249 236 234 240 237 231 228 229 229 227 225 224 226 228 230 231 232 234 236 235 234 233 232 237 242 240 237 237 236 234 236 240 245 250 253 254 254 252 251 254 255 257 257 259 267 274 274 263 243 235 238 242 245 248 249 248 246 243 240
262 271 286 285 264 259 245 240 233 222 217 213 211 210 211 222 235 233 238 256 252 265 253 242 238 235 238 245 236 223 224 232 232 230 229 228 230 231 228 226 226 229 232 233 233 234 234 235 235 234 238 241 238 236 239 240 239 240 243 246 249 252 256 257 254 251 251 254 256 255 259 268 273 271 257 238 233 237 240 243 246 248 248 248 246 243
258 273 288 285 264 255 239 230 232 226 219 215 211 207 207 211 228 224 222 239 230 237 259 248 247 237 230 237 242 230 220 224 229 228 227 227 228 232 233 230 227 229 231 232 231 232 233 234 235 236 238 239 235 235 239 241 241 242 242 244 248 253 258 258 253 250 250 254 257 254 258 266 269 267 251 234 232 235 239 241 244 247 248 248 248 246
243 263 287 287 268 259 242 231 229 225 219 218 218 220 222 222 228 230 232 241 233 210 250 261 263 251 242 244 247 241 232 232 233 230 227 227 227 230 234 235 234 233 233 232 231 231 233 235 236 237 239 238 234 235 241 242 242 242 241 242 246 251 256 256 252 248 248 254 255 250 255 263 267 263 245 230 231 235 238 240 242 245 247 247 248 247
238 244 265 270 269 271 248 232 229 224 219 215 216 224 228 224 229 247 254 255 248 213 173 229 262 259 248 247 249 247 242 240 239 236 233 232 230 230 232 235 238 239 237 235 232 231 232 234 236 236 237 237 235 238 243 242 240 239 237 239 245 249 253 255 252 249 248 251 250 247 253 262 265 260 239 227 230 234 236 238 240 243 244 245 246 246
238 241 257 264 268 268 248 227 224 223 223 220 216 221 224 222 227 239 262 255 245 236 224 206 268 262 239 230 238 237 235 237 238 239 242 242 240 236 233 232 234 237 238 236 232 229 229 231 234 235 234 234 236 239 240 238 238 237 235 237 244 248 252 255 254 252 249 250 249 247 252 258 261 253 234 226 230 233 235 238 239 242 243 243 245 245
244 246 253 261 266 264 254 244 234 222 218 217 217 221 219 221 229 223 222 251 246 251 261 248 289 258 233 224 227 219 218 218 217 228 239 245 248 246 241 235 231 232 234 233 230 227 228 230 234 235 234 234 236 236 234 235 237 237 236 238 243 248 252 255 254 252 250 249 248 247 250 255 257 247 230 226 230 233 235 237 238 241 243 242 244 244
247 248 251 263 274 272 263 248 227 213 213 215 216 219 217 220 230 230 231 243 247 257 261 281 337 255 235 229 234 233 233 216 199 215 236 240 248 251 245 238 231 230 231 231 229 227 228 231 232 232 232 233 234 233 233 236 239 239 238 239 243 247 252 254 253 251 248 246 246 245 248 254 254 242 228 225 230 233 235 237 238 241 242 241 243 244
249 243 242 263 291 296 265 225 211 209 213 216 215 216 221 225 227 233 239 237 238 253 251 188 240 246 236 232 239 246 258 249 231 243 254 248 253 258 251 240 232 230 231 231 230 227 229 232 230 229 232 233 232 232 234 238 241 241 239 239 244 249 253 253 252 251 248 244 243 243 247 254 253 239 226 226 231 233 235 237 238 240 241 241 242 243
260 246 241 239 243 206 150 167 200 207 205 209 216 219 229 232 221 225 236 225 213 238 238 212 236 253 249 242 249 262 271 267 257 261 279 284 278 271 258 243 233 230 232 234 232 228 228 230 229 228 231 232 231 233 236 238 240 240 240 242 246 250 253 253 251 250 247 241 241 242 247 255 251 235 225 227 231 233 235 237 238 239 240 241 242 242
275 271 271 265 244 237 231 150 162 190 196 206 218 224 233 235 221 220 226 220 214 228 236 234 256 281 281 267 269 279 273 266 272 276 295 316 301 273 254 244 237 234 234 235 233 229 227 227 227 227 229 231 231 233 236 239 239 239 241 244 247 249 251 250 249 249 245 239 239 241 247 255 248 232 224 227 231 234 236 237 237 239 240 240 240 241
276 287 296 296 287 279 275 213 186 204 203 207 218 228 236 232 217 218 224 226 226 229 243 258 284 304 298 286 286 290 278 277 295 305 308 315 301 269 248 245 245 240 233 231 230 230 229 227 225 226 230 232 232 232 235 238 238 239 242 246 248 248 249 248 248 247 242 237 237 240 248 253 242 227 224 228 231 234 236 236 237 238 239 239 239 239
279 292 303 306 311 328 310 243 217 217 209 207 213 224 232 228 217 218 223 230 233 234 248 266 284 297 295 289 285 285 294 300 301 307 312 310 301 273 249 247 250 241 229 226 228 230 231 229 227 228 231 233 232 231 234 237 239 241 245 249 248 246 245 246 247 246 239 235 236 241 248 248 234 225 226 228 230 234 237 238 238 238 238 239 238 238
281 293 315 314 306 330 339 255 219 216 214 216 214 215 223 225 220 221 228 239 243 245 256 265 273 283 287 285 283 284 296 303 300 305 313 308 305 289 260 251 249 240 230 227 227 229 232 232 230 230 232 233 232 232 236 240 242 242 245 247 245 242 241 241 241 239 235 233 236 241 247 242 230 226 230 230 231 235 238 239 240 239 238 238 238 238
276 288 321 317 301 313 330 301 245 225 224 224 217 215 222 224 222 223 231 240 242 244 256 264 267 274 281 283 284 284 290 298 299 308 312 300 299 301 274 256 249 241 234 228 222 222 228 230 230 230 230 231 231 232 237 241 241 241 243 243 240 238 236 234 232 232 231 232 236 242 244 238 228 228 232 231 232 237 239 241 241 241 238 237 237 238
287 289 316 317 301 306 324 328 313 235 230 229 215 215 223 226 228 229 230 235 242 248 254 257 261 271 280 282 280 281 287 296 300 309 307 291 295 316 288 259 250 241 234 227 217 214 218 222 226 228 229 229 229 229 233 236 236 237 239 237 233 229 227 227 227 228 230 233 238 242 242 234 228 230 233 232 234 239 241 242 243 243 240 237 237 238
289 282 320 333 305 305 334 343 359 168 218 234 224 229 232 230 233 234 232 234 240 247 250 250 258 270 276 277 283 289 290 295 302 303 293 284 324 4 322 264 249 239 234 227 219 216 215 216 221 222 222 223 224 225 229 232 234 236 236 230 224 220 220 223 226 228 232 236 239 241 240 233 228 231 234 234 237 241 243 244 245 246 243 238 237 239
297 289 315 335 309 313 342 5 95 126 157 213 236 261 245 240 243 238 232 231 233 236 240 248 258 267 268 276 294 299 293 295 313 304 276 283 4 14 359 280 244 237 233 226 221 220 218 216 216 214 215 217 220 224 229 232 234 233 229 222 217 216 219 224 227 230 234 238 239 239 238 233 229 231 234 236 239 242 244 246 248 249 248 241 237 238
306 309 317 329 322 322 343 20 100 89 244 224 259 337 231 231 247 242 233 230 232 233 232 240 251 255 261 279 293 294 287 297 329 318 218 251 341 0 14 321 241 237 235 227 224 228 224 215 210 210 214 218 221 225 227 226 224 219 214 212 213 215 219 224 228 232 235 238 239 238 237 234 231 231 234 236 239 242 245 248 249 250 251 247 241 239
311 317 321 327 329 327 339 356 339 293 276 250 322 11 359 272 266 246 235 230 230 231 228 233 243 246 252 270 283 283 277 283 319 331 180 190 341 11 38 42 231 233 237 232 229 232 224 213 208 209 214 217 214 213 211 207 203 203 204 208 212 215 219 224 228 231 233 236 238 238 238 236 234 234 235 237 239 242 245 248 251 252 252 251 245 239
312 314 319 326 330 327 330 335 329 306 294 318 354 358 349 340 324 255 236 228 223 226 227 231 241 245 249 263 276 279 276 276 306 340 180 158 37 41 63 67 94 201 221 227 226 225 220 214 210 205 204 204 198 192 191 192 194 199 203 208 212 214 218 222 225 229 233 236 238 239 239 238 237 237 238 239 241 244 247 251 254 254 253 252 248 241
318 315 314 311 311 321 326 328 334 322 287 318 341 344 340 334 326 276 234 233 224 229 233 231 242 248 249 260 271 273 272 275 319 352 200 179 60 46 81 88 74 96 166 205 214 213 210 207 203 195 191 194 193 189 188 191 194 198 202 208 212 215 218 222 225 229 235 238 239 240 239 239 239 239 240 242 245 247 250 252 254 255 253 252 248 243
3 346 333 314 305 318 325 318 310 303 290 315 330 332 327 323 320 294 219 238 234 238 241 236 244 253 256 263 266 262 261 269 343 355 234 195 144 41 73 98 92 78 89 133 185 201 204 200 197 195 194 195 195 195 197 202 205 208 212 215 218 222 227 229 229 230 233 237 240 242 241 241 241 240 241 244 247 249 251 252 253 254 253 251 248 243
9 360 348 334 324 324 325 311 293 296 302 316 327 329 324 316 310 272 200 248 233 231 241 244 248 260 267 264 256 249 254 262 312 338 282 210 192 122 64 89 98 81 74 89 115 159 188 196 199 203 204 202 202 203 208 214 217 219 223 225 229 234 238 237 236 233 231 235 240 242 243 244 244 244 244 244 246 248 250 251 251 252 252 253 250 243
354 357 348 337 333 329 321 307 303 306 308 320 329 334 337 330 302 230 233 273 255 236 249 251 248 260 269 254 232 231 244 253 259 278 266 212 191 189 116 87 72 47 63 92 92 112 128 142 168 190 201 204 207 209 213 219 220 221 225 228 232 236 237 241 244 238 229 231 238 241 242 243 245 247 247 247 247 247 249 250 250 250 252 254 251 242
347 352 351 343 336 329 318 308 306 307 314 324 329 336 346 341 303 265 265 277 273 259 261 260 255 265 270 252 213 220 232 216 204 235 242 219 192 178 160 118 67 34 49 152 112 129 129 125 134 150 172 195 205 211 219 226 228 229 233 236 238 241 243 249 255 246 232 232 238 241 242 244 247 249 249 249 249 248 248 249 250 251 251 249 244 236
351 349 345 344 341 334 323 314 309 319 331 336 338 337 335 331 306 281 267 263 266 265 262 265 276 281 279 259 206 206 209 177 164 177 242 236 216 201 183 143 89 55 58 85 17 195 157 145 149 151 154 173 194 206 218 227 228 231 238 244 244 247 250 253 253 245 241 245 247 247 246 246 248 250 250 250 251 250 248 249 250 252 248 238 230 227
1 354 343 343 346 341 325 325 341 346 346 349 348 338 337 354 353 313 285 267 267 266 258 255 264 302 304 312 184 190 177 134 138 147 192 237 227 230 225 108 87 69 66 73 297 277 272 246 205 194 184 180 193 207 215 223 227 232 242 249 251 255 258 259 255 253 259 265 267 266 264 259 256 255 253 252 252 250 248 248 251 251 239 223 218 222
2 359 351 349 351 349 342 345 354 356 356 358 359 353 357 12 7 312 293 301 283 263 259 256 239 263 299 327 352 312 175 118 138 187 191 200 226 242 318 47 40 40 41 53 179 218 271 272 260 256 254 248 241 237 237 243 248 251 254 256 260 264 266 269 271 272 275 276 273 272 271 267 262 258 254 253 253 251 250 250 248 240 221 210 214 222
3 1 357 353 353 355 360 2 1 359 359 3 7 7 4 3 356 268 267 310 282 264 266 263 252 277 288 296 313 316 314 127 187 198 184 175 186 203 211 241 273 296 328 353 89 154 221 229 228 238 246 247 245 244 249 256 260 263 265 264 267 270 272 275 276 273 271 267 262 261 264 263 258 252 249 249 248 248 250 250 242 226 213 212 217 222
1 358 355 354 355 356 360 3 3 3 8 10 7 5 2 0 5 35 53 13 270 260 270 268 269 283 284 281 280 273 265 261 244 218 183 158 158 174 188 204 228 247 262 271 259 240 234 221 217 225 234 241 248 252 257 263 266 269 272 273 274 275 275 274 272 269 264 257 250 248 252 254 252 248 245 244 243 244 248 245 232 220 218 222 223 225
349 351 349 350 355 358 357 0 4 9 15 11 4 2 4 3 7 20 36 41 12 270 266 277 274 266 269 280 282 271 248 231 228 229 210 178 171 178 184 192 201 211 220 233 242 244 241 236 234 238 241 247 254 258 261 266 269 270 271 273 273 272 271 269 268 266 261 253 248 243 238 235 237 240 242 244 243 239 230 220 219 226 235 235 230 228
338 341 345 347 354 360 1 2 4 9 14 11 6 7 8 3 5 12 18 22 28 24 307 321 299 271 264 264 262 262 245 220 212 213 208 195 188 188 191 198 204 205 206 209 214 220 229 237 240 242 244 249 256 263 267 269 271 271 271 272 270 268 266 265 264 261 253 245 242 238 228 219 222 229 235 243 245 231 213 208 218 232 240 239 233 229
344 349 356 358 359 0 2 4 4 5 7 5 4 7 9 5 5 10 12 13 27 72 76 47 36 28 18 44 140 193 227 214 204 206 209 204 199 198 199 203 209 214 216 215 215 220 230 238 241 244 250 255 260 265 267 267 267 269 270 269 267 265 264 263 260 256 246 235 230 228 220 213 216 223 229 235 234 219 208 210 216 220 226 232 231 228
354 357 3 3 359 357 360 4 6 5 3 1 0 3 4 4 4 5 9 18 22 53 84 64 54 59 58 58 66 71 66 84 122 170 205 211 210 212 214 216 219 224 229 230 232 237 243 250 256 260 263 265 265 265 265 264 265 265 265 264 263 263 264 261 255 245 236 228 223 220 216 214 218 223 224 224 218 208 203 206 207 208 215 219 218 219
Height
3053 3053 3052 3052 3052 3054 3056 3057 3058 3059 3059 3060 3061 3062 3062 3063 3063 3065 3068 3071 3073 3073 3073 3075 3073 3073 3078 3082 3087 3091 3094 3095 3097 3101 3104 3106 3109 3111 3114 3116 3118 3121 3124 3127 3130 3131 3133 3134 3135 3138 3142 3145 3147 3149 3151 3151 3152 3154 3156 3158 3159 3160 3160 3161 3161 3162 3163 3163 3164 3165 3166 3166 3167 3167 3167 3168 3168 3169 3169 3169 3169 3169 3170 3171 3171 3172
3052 3051 3050 3051 3052 3054 3056 3056 3057 3057 3058 3058 3059 3059 3060 3061 3061 3063 3066 3068 3071 3070 3069 3071 3070 3069 3074 3078 3082 3086 3089 3090 3092 3096 3099 3102 3106 3108 3111 3113 3115 3117 3120 3123 3125 3126 3128 3130 3132 3135 3138 3142 3144 3146 3148 3149 3150 3152 3154 3156 3157 3158 3158 3159 3159 3160 3161 3162 3163 3163 3164 3164 3165 3165 3166 3166 3167 3167 3167 3167 3167 3168 3168 3169 3170 3170
3050 3049 3048 3050 3052 3053 3054 3055 3055 3055 3056 3056 3057 3057 3057 3058 3059 3061 3063 3066 3068 3067 3066 3068 3066 3064 3069 3073 3077 3080 3083 3086 3088 3092 3095 3099 3102 3105 3108 3111 3113 3115 3116 3119 3121 3123 3125 3127 3129 3131 3135 3138 3141 3144 3145 3146 3148 3149 3152 3153 3154 3155 3156 3157 3157 3158 3159 3160 3161 3162 3162 3163 3163 3164 3164 3164 3164 3165 3165 3166 3166 3166 3167 3167 3168 3169
3048 3047 3048 3049 3051 3051 3052 3053 3053 3053 3054 3054 3055 3055 3055 3057 3059 3058 3060 3063 3065 3064 3063 3064 3061 3060 3064 3068 3071 3075 3078 3081 3085 3088 3092 3095 3098 3101 3105 3108 3110 3112 3115 3117 3119 3119 3121 3123 3124 3128 3132 3135 3138 3140 3142 3144 3145 3147 3149 3151 3152 3153 3154 3155 3155 3156 3157 3158 3159 3160 3161 3161 3162 3162 3162 3163 3163 3163 3164 3164 3164 3165 3165 3166 3166 3167
3045 3046 3048 3049 3049 3049 3050 3050 3051 3052 3052 3052 3053 3053 3053 3055 3057 3057 3058 3060 3062 3062 3061 3062 3059 3054 3059 3064 3066 3071 3074 3076 3080 3083 3086 3090 3094 3097 3100 3104 3107 3109 3113 3115 3117 3118 3118 3119 3121 3125 3129 3132 3134 3137 3139 3141 3143 3145 3147 3148 3150 3151 3152 3153 3154 3154 3155 3156 3157 3158 3159 3160 3161 3161 3161 3161 3161 3162 3162 3162 3163 3163 3163 3164 3164 3165
3043 3045 3046 3047 3047 3048 3048 3048 3049 3050 3050 3050 3051 3051 3052 3053 3055 3056 3057 3058 3060 3060 3059 3062 3059 3051 3055 3060 3063 3068 3070 3071 3076 3078 3081 3085 3089 3092 3095 3099 3102 3105 3109 3112 3115 3117 3117 3118 3119 3122 3125 3129 3132 3135 3137 3139 3141 3143 3144 3146 3148 3149 3150 3151 3152 3152 3153 3154 3155 3156 3158 3158 3159 3159 3160 3160 3160 3160 3160 3160 3160 3161 3161 3162 3163 3163
3041 3043 3044 3044 3045 3046 3046 3046 3047 3048 3049 3048 3048 3050 3051 3052 3053 3054 3056 3057 3058 3057 3056 3059 3059 3052 3053 3057 3059 3064 3066 3068 3072 3074 3076 3081 3084 3088 3091 3094 3098 3101 3105 3108 3112 3114 3115 3115 3117 3120 3122 3126 3130 3133 3135 3136 3137 3140 3141 3143 3145 3146 3148 3149 3149 3150 3151 3152 3153 3155 3156 3157 3157 3158 3158 3158 3158 3158 3158 3158 3158 3159 3160 3160 3161 3161
3040 3041 3042 3043 3043 3043 3043 3044 3045 3047 3047 3046 3047 3049 3049 3050 3051 3052 3054 3055 3055 3054 3052 3054 3057 3054 3052 3053 3056 3060 3062 3063 3066 3069 3072 3076 3079 3083 3087 3090 3093 3096 3100 3104 3107 3109 3111 3112 3114 3118 3121 3124 3128 3131 3132 3133 3135 3137 3138 3140 3142 3144 3145 3146 3147 3148 3149 3150 3151 3153 3154 3155 3155 3156 3156 3156 3156 3155 3155 3156 3156 3157 3158 3158 3159 3160
3040 3040 3041 3041 3041 3041 3041 3042 3044 3045 3045 3045 3046 3047 3047 3048 3049 3050 3052 3052 3053 3054 3049 3049 3055 3054 3048 3049 3053 3056 3057 3058 3060 3063 3067 3070 3073 3077 3081 3084 3088 3092 3095 3099 3102 3105 3108 3110 3112 3115 3119 3122 3125 3127 3128 3131 3133 3134 3136 3138 3140 3141 3142 3143 3144 3145 3146 3147 3149 3150 3151 3152 3153 3153 3153 3153 3153 3153 3153 3154 3155 3155 3156 3157 3157 3158
3038 3038 3039 3040 3039 3039 3040 3041 3043 3044 3043 3043 3045 3045 3046 3046 3047 3048 3049 3050 3052 3052 3047 3045 3051 3051 3046 3045 3050 3052 3052 3053 3056 3059 3062 3065 3068 3071 3075 3080 3084 3087 3090 3094 3098 3102 3105 3108 3110 3113 3116 3119 3121 3123 3125 3127 3130 3131 3133 3135 3137 3138 3139 3140 3141 3142 3143 3145 3146 3148 3148 3149 3150 3150 3151 3151 3151 3152 3152 3152 3153 3154 3154 3155 3156 3156
3035 3036 3036 3036 3036 3037 3038 3040 3041 3042 3042 3042 3043 3044 3044 3044 3045 3046 3047 3048 3050 3048 3044 3041 3046 3050 3044 3040 3044 3047 3047 3049 3053 3056 3058 3061 3065 3068 3072 3076 3080 3083 3086 3089 3094 3098 3102 3105 3108 3111 3112 3115 3117 3119 3120 3123 3126 3129 3130 3132 3134 3135 3136 3137 3138 3139 3140 3142 3144 3145 3146 3147 3147 3148 3148 3149 3149 3150 3150 3151 3151 3152 3152 3153 3154 3154
3032 3033 3032 3032 3033 3035 3036 3037 3038 3039 3040 3041 3041 3043 3043 3043 3043 3044 3045 3047 3047 3044 3040 3038 3042 3046 3041 3036 3040 3043 3044 3047 3050 3052 3056 3058 3061 3065 3068 3072 3076 3079 3082 3086 3090 3094 3098 3101 3104 3106 3108 3111 3113 3114 3116 3120 3123 3126 3128 3129 3131 3132 3133 3134 3135 3136 3137 3139 3141 3142 3143 3144 3144 3145 3146 3146 3147 3148 3148 3149 3149 3150 3150 3151 3151 3152
3028 3028 3028 3028 3029 3031 3032 3033 3034 3035 3037 3038 3039 3041 3043 3042 3043 3044 3043 3043 3043 3039 3036 3037 3041 3041 3035 3033 3038 3040 3041 3044 3047 3049 3052 3055 3057 3061 3065 3069 3072 3075 3078 3080 3084 3089 3093 3096 3099 3102 3105 3108 3109 3111 3113 3117 3119 3122 3125 3126 3127 3129 3130 3130 3131 3133 3134 3136 3137 3139 3140 3141 3142 3142 3143 3144 3145 3146 3146 3147 3147 3148 3148 3149 3149 3150
3023 3022 3023 3024 3024 3025 3027 3027 3028 3030 3032 3034 3036 3038 3040 3041 3043 3044 3041 3040 3040 3036 3034 3038 3041 3037 3031 3030 3034 3036 3037 3041 3044 3046 3048 3051 3053 3056 3060 3064 3067 3070 3073 3076 3079 3084 3088 3092 3095 3098 3101 3104 3106 3108 3110 3113 3115 3118 3121 3123 3124 3125 3126 3127 3128 3130 3131 3133 3134 3135 3137 3138 3139 3140 3141 3142 3143 3143 3144 3144 3145 3146 3146 3147 3147 3147
3023 3020 3019 3020 3020 3020 3020 3021 3023 3026 3030 3031 3034 3036 3037 3038 3040 3040 3039 3038 3037 3035 3033 3037 3038 3034 3029 3028 3030 3033 3036 3038 3042 3043 3045 3048 3050 3053 3055 3058 3061 3064 3068 3071 3075 3079 3083 3087 3091 3095 3097 3100 3103 3105 3107 3109 3111 3114 3117 3119 3121 3122 3123 3124 3125 3127 3129 3130 3131 3133 3134 3135 3136 3137 3138 3139 3140 3141 3141 3142 3143 3144 3144 3144 3145 3145
3024 3020 3017 3018 3018 3017 3018 3018 3021 3025 3027 3028 3031 3034 3034 3035 3037 3037 3036 3035 3035 3033 3031 3033 3033 3030 3028 3027 3029 3032 3033 3036 3039 3041 3043 3045 3047 3050 3052 3054 3056 3059 3063 3066 3069 3074 3079 3083 3087 3091 3093 3096 3099 3102 3104 3106 3108 3110 3114 3116 3117 3119 3119 3120 3122 3124 3126 3127 3128 3130 3131 3132 3133 3134 3135 3137 3138 3139 3139 3140 3141 3142 3142 3142 3143 3143
3022 3018 3017 3018 3017 3016 3017 3018 3020 3022 3023 3024 3026 3028 3030 3034 3036 3035 3034 3033 3033 3033 3030 3028 3028 3028 3027 3025 3026 3029 3030 3033 3036 3038 3040 3042 3044 3046 3047 3050 3053 3056 3059 3062 3065 3069 3074 3079 3082 3086 3089 3092 3095 3098 3099 3102 3105 3107 3110 3112 3114 3115 3115 3117 3120 3122 3123 3124 3126 3127 3129 3130 3131 3132 3133 3135 3136 3136 3137 3137 3138 3139 3140 3140 3140 3141
3020 3017 3016 3017 3016 3016 3017 3017 3018 3019 3020 3021 3022 3024 3028 3032 3033 3033 3033 3031 3032 3032 3029 3025 3025 3026 3025 3021 3022 3026 3028 3029 3032 3034 3037 3038 3040 3042 3044 3047 3050 3053 3056 3059 3062 3066 3070 3074 3078 3081 3085 3089 3092 3093 3095 3099 3102 3104 3107 3108 3109 3111 3112 3115 3117 3119 3120 3121 3123 3125 3126 3127 3128 3129 3130 3132 3133 3134 3134 3135 3136 3137 3137 3138 3139 3139
3019 3017 3014 3015 3015 3015 3016 3016 3016 3016 3018 3020 3021 3024 3026 3028 3028 3030 3031 3030 3030 3030 3027 3023 3022 3022 3021 3019 3020 3023 3025 3026 3029 3031 3034 3035 3037 3039 3042 3045 3048 3050 3053 3055 3059 3063 3066 3070 3073 3077 3081 3085 3088 3090 3092 3095 3097 3100 3102 3104 3105 3107 3109 3111 3114 3116 3117 3119 3120 3122 3123 3124 3125 3126 3128 3129 3130 3131 3132 3133 3134 3135 3135 3136 3136 3137
3020 3018 3015 3014 3014 3014 3014 3014 3014 3015 3016 3018 3021 3023 3024 3025 3025 3027 3028 3027 3027 3027 3025 3023 3020 3018 3018 3019 3019 3021 3023 3025 3026 3029 3031 3033 3035 3038 3040 3043 3045 3047 3049 3052 3055 3059 3062 3066 3069 3073 3078 3081 3084 3086 3088 3090 3093 3096 3098 3099 3102 3104 3105 3107 3110 3113 3114 3116 3117 3119 3120 3121 3122 3123 3125 3126 3127 3128 3129 3130 3132 3132 3133 3133 3134 3135
3019 3018 3015 3013 3013 3013 3013 3012 3013 3014 3016 3017 3019 3020 3021 3023 3024 3025 3026 3025 3024 3024 3024 3023 3019 3016 3017 3018 3018 3019 3022 3024 3025 3028 3030 3032 3034 3036 3038 3040 3042 3043 3046 3048 3051 3055 3058 3062 3065 3070 3074 3077 3079 3081 3083 3086 3088 3091 3093 3095 3098 3100 3101 3103 3107 3109 3111 3112 3114 3115 3116 3118 3119 3120 3122 3123 3124 3125 3126 3128 3129 3130 3130 3131 3132 3132
3017 3017 3014 3012 3011 3011 3011 3012 3013 3014 3016 3017 3017 3017 3019 3021 3023 3025 3025 3023 3022 3021 3020 3020 3018 3014 3015 3017 3017 3018 3020 3022 3024 3026 3028 3029 3030 3031 3033 3034 3036 3038 3040 3043 3047 3050 3054 3057 3061 3066 3070 3072 3073 3075 3078 3081 3084 3086 3089 3091 3094 3096 3097 3100 3103 3105 3107 3109 3110 3112 3113 3115 3115 3117 3119 3120 3121 3122 3123 3125 3126 3127 3128 3129 3129 3130
3015 3015 3013 3010 3008 3008 3009 3011 3012 3013 3014 3015 3016 3017 3018 3020 3021 3023 3024 3021 3020 3019 3017 3018 3016 3012 3013 3015 3015 3015 3017 3018 3020 3022 3023 3024 3025 3025 3026 3028 3030 3032 3035 3038 3042 3046 3049 3052 3057 3061 3064 3065 3068 3071 3074 3077 3080 3082 3085 3088 3089 3091 3094 3096 3099 3101 3103 3105 3107 3108 3110 3111 3112 3114 3115 3117 3118 3119 3121 3122 3124 3125 3125 3126 3127 3128
3013 3013 3011 3008 3007 3006 3007 3007 3009 3011 3012 3012 3013 3015 3017 3018 3019 3020 3021 3020 3019 3017 3016 3017 3016 3011 3009 3012 3012 3013 3015 3015 3016 3018 3019 3021 3021 3022 3022 3023 3025 3027 3030 3034 3037 3040 3044 3048 3052 3055 3057 3060 3063 3067 3070 3073 3076 3078 3081 3083 3085 3088 3090 3092 3095 3097 3099 3101 3103 3105 3106 3107 3108 3110 3112 3114 3115 3116 3118 3119 3121 3122 3123 3124 3124 3125
3011 3010 3010 3009 3007 3005 3005 3007 3008 3008 3009 3010 3011 3014 3015 3016 3018 3018 3019 3019 3018 3016 3015 3017 3014 3006 3005 3009 3010 3012 3013 3013 3014 3015 3016 3017 3018 3018 3018 3019 3020 3023 3026 3029 3031 3034 3038 3042 3045 3049 3052 3056 3059 3062 3065 3069 3071 3074 3077 3079 3081 3084 3086 3088 3090 3093 3095 3097 3099 3101 3102 3103 3105 3107 3109 3110 3112 3113 3115 3117 3118 3119 3120 3121 3122 3122
3009 3008 3008 3009 3008 3006 3005 3007 3007 3007 3008 3009 3010 3012 3013 3014 3015 3016 3016 3016 3014 3013 3012 3012 3008 3002 3003 3007 3008 3009 3011 3011 3011 3013 3013 3014 3014 3014 3014 3015 3016 3019 3021 3024 3026 3030 3033 3036 3039 3043 3048 3051 3054 3057 3061 3064 3067 3070 3073 3075 3077 3080 3082 3084 3086 3089 3091 3093 3095 3097 3098 3100 3101 3103 3105 3107 3109 3110 3112 3114 3115 3116 3117 3118 3119 3120
3008 3007 3006 3006 3006 3004 3003 3004 3005 3005 3007 3007 3008 3009 3011 3012 3013 3014 3013 3011 3009 3009 3007 3007 3006 3004 3004 3005 3006 3008 3009 3009 3009 3010 3009 3009 3010 3010 3010 3011 3012 3015 3018 3020 3022 3026 3028 3030 3034 3039 3043 3047 3050 3053 3056 3060 3063 3066 3068 3071 3073 3075 3077 3079 3082 3084 3087 3089 3091 3092 3094 3096 3098 3100 3102 3104 3106 3107 3109 3111 3112 3114 3115 3116 3116 3117
3008 3006 3005 3005 3004 3002 3002 3002 3003 3004 3004 3004 3005 3007 3008 3009 3009 3009 3008 3006 3006 3006 3005 3006 3008 3006 3004 3004 3004 3006 3007 3007 3007 3006 3005 3005 3005 3005 3006 3007 3009 3011 3014 3016 3018 3021 3023 3025 3030 3034 3038 3042 3046 3048 3052 3056 3059 3061 3064 3067 3069 3071 3073 3075 3078 3080 3082 3084 3086 3088 3091 3093 3095 3097 3099 3101 3103 3104 3106 3108 3109 3111 3112 3113 3114 3115
3008 3005 3004 3004 3003 3001 3001 3001 3002 3002 3002 3003 3004 3005 3005 3005 3005 3004 3003 3003 3004 3004 3004 3006 3007 3005 3003 3003 3003 3003 3004 3003 3003 3003 3002 3002 3002 3002 3002 3004 3006 3008 3010 3013 3014 3016 3018 3022 3027 3031 3034 3039 3042 3044 3047 3051 3054 3057 3060 3063 3065 3067 3069 3071 3073 3075 3078 3080 3082 3085 3087 3089 3091 3094 3096 3098 3099 3101 3103 3104 3106 3107 3109 3110 3111 3112
3008 3005 3004 3004 3002 3001 3001 3000 3000 3000 3001 3002 3002 3003 3003 3002 3001 3001 3001 3002 3002 3002 3003 3005 3005 3003 3003 3003 3002 3000 3000 3000 2999 2999 2999 3000 3000 2999 2999 3001 3003 3005 3007 3009 3011 3014 3016 3020 3024 3027 3031 3035 3037 3040 3044 3047 3050 3053 3056 3059 3061 3063 3065 3067 3069 3071 3074 3076 3079 3081 3084 3086 3088 3090 3092 3094 3096 3098 3100 3101 3103 3104 3106 3107 3109 3109
3008 3005 3004 3003 3001 2999 2999 2999 2999 2999 2999 3000 3000 3001 3002 3001 3000 3000 3001 3001 3001 3000 3001 3003 3002 3001 3001 3002 3001 2999 2999 2998 2997 2996 2996 2997 2998 2997 2997 2998 3000 3002 3004 3006 3008 3011 3014 3017 3021 3024 3027 3030 3033 3037 3040 3043 3046 3050 3052 3055 3057 3059 3061 3063 3064 3067 3070 3072 3075 3078 3080 3083 3085 3087 3089 3091 3093 3095 3097 3098 3100 3101 3103 3104 3105 3106
3008 3006 3005 3004 3001 2997 2997 2996 2995 2996 2997 2998 2998 2999 2999 2999 2999 2998 2999 2999 2998 2998 2999 3000 2999 2998 2999 3000 2998 2997 2998 2997 2995 2995 2995 2996 2997 2996 2995 2996 2997 2999 3001 3003 3005 3008 3010 3013 3016 3019 3023 3026 3030 3033 3036 3039 3042 3046 3048 3051 3053 3055 3057 3059 3061 3063 3066 3069 3072 3074 3077 3079 3082 3084 3086 3088 3090 3092 3094 3095 3096 3098 3100 3101 3102 3103
3008 3006 3005 3004 3000 2996 2995 2993 2991 2993 2996 2996 2996 2996 2995 2996 2996 2996 2996 2997 2996 2996 2996 2996 2997 2997 2998 2997 2995 2995 2995 2994 2993 2993 2993 2995 2995 2993 2993 2993 2994 2996 2998 3000 3002 3005 3007 3009 3012 3015 3019 3023 3026 3029 3033 3036 3039 3043 3046 3047 3049 3051 3053 3056 3058 3060 3063 3066 3068 3071 3073 3076 3078 3080 3083 3085 3087 3088 3090 3092 3093 3095 3096 3098 3099 3100
3007 3005 3005 3004 3001 2997 2996 2994 2992 2994 2996 2995 2994 2994 2994 2994 2994 2993 2993 2994 2994 2994 2994 2994 2995 2996 2996 2995 2993 2992 2992 2993 2992 2990 2991 2992 2992 2990 2990 2990 2990 2992 2995 2997 2999 3002 3004 3006 3008 3011 3015 3019 3022 3026 3029 3033 3036 3040 3042 3044 3046 3048 3051 3053 3055 3057 3060 3063 3065 3068 3070 3073 3075 3077 3080 3082 3083 3085 3087 3089 3090 3092 3093 3095 3096 3096
3007 3005 3004 3004 3002 2998 2997 2997 2996 2996 2995 2993 2992 2992 2992 2992 2992 2990 2991 2992 2992 2992 2992 2993 2994 2995 2994 2993 2991 2991 2991 2991 2990 2990 2990 2990 2990 2989 2989 2988 2988 2990 2992 2995 2997 2999 3001 3003 3005 3008 3012 3016 3019 3022 3026 3029 3032 3035 3038 3040 3043 3046 3048 3050 3052 3055 3057 3060 3062 3065 3067 3069 3072 3074 3076 3078 3080 3082 3083 3085 3087 3088 3090 3091 3093 3093
3007 3006 3005 3005 3003 3000 2998 2998 2998 2995 2993 2992 2992 2991 2990 2990 2989 2988 2988 2990 2990 2990 2991 2991 2992 2993 2993 2991 2990 2990 2989 2989 2990 2990 2990 2990 2990 2990 2988 2987 2987 2988 2990 2993 2994 2996 2998 3000 3003 3005 3008 3012 3015 3018 3022 3025 3029 3032 3035 3038 3040 3043 3045 3047 3049 3052 3055 3057 3059 3061 3064 3066 3069 3071 3073 3075 3076 3078 3080 3082 3084 3085 3086 3088 3089 3090
3008 3007 3006 3005 3003 3002 3000 2998 2996 2994 2992 2991 2991 2989 2988 2988 2987 2987 2987 2987 2987 2988 2989 2990 2990 2990 2991 2990 2989 2988 2988 2988 2988 2989 2990 2990 2989 2989 2988 2987 2987 2988 2989 2992 2993 2995 2996 2999 3001 3003 3005 3008 3012 3015 3019 3022 3025 3029 3032 3035 3037 3040 3042 3045 3047 3050 3052 3054 3057 3059 3061 3063 3065 3067 3070 3071 3073 3075 3076 3078 3080 3082 3083 3084 3085 3086
3009 3008 3007 3006 3004 3002 3001 2998 2996 2994 2992 2990 2989 2989 2987 2985 2985 2986 2985 2985 2986 2987 2987 2988 2988 2988 2988 2988 2988 2988 2987 2986 2986 2987 2988 2987 2987 2987 2986 2986 2987 2988 2989 2991 2992 2994 2995 2997 3000 3002 3003 3006 3009 3013 3017 3020 3023 3027 3030 3032 3035 3038 3040 3042 3045 3048 3050 3052 3054 3056 3058 3060 3062 3064 3066 3068 3070 3071 3072 3074 3076 3077 3079 3079 3080 3082
3009 3008 3007 3006 3004 3003 3001 3000 2998 2996 2993 2991 2989 2988 2986 2984 2983 2984 2984 2984 2985 2986 2986 2986 2986 2986 2986 2986 2987 2987 2986 2985 2984 2985 2986 2985 2985 2986 2985 2985 2988 2990 2990 2991 2992 2993 2995 2997 2999 3001 3003 3006 3009 3011 3014 3017 3020 3024 3027 3030 3033 3035 3037 3040 3043 3045 3047 3049 3051 3053 3054 3056 3058 3060 3062 3064 3065 3066 3068 3071 3072 3072 3074 3075 3076 3079
3009 3008 3007 3006 3005 3003 3002 3000 2998 2996 2993 2992 2990 2988 2986 2983 2983 2983 2983 2982 2983 2983 2984 2984 2984 2985 2985 2985 2985 2985 2984 2983 2983 2984 2984 2985 2985 2986 2985 2985 2987 2990 2992 2992 2992 2993 2995 2996 2998 3000 3002 3005 3008 3010 3013 3015 3018 3020 3023 3026 3029 3031 3034 3037 3039 3040 3042 3045 3047 3049 3050 3051 3053 3055 3057 3059 3060 3062 3064 3066 3066 3067 3069 3070 3072 3075
3010 3008 3007 3006 3004 3002 3001 2999 2997 2994 2993 2991 2990 2988 2985 2983 2983 2983 2982 2981 2981 2981 2982 2982 2982 2983 2984 2983 2983 2983 2982 2982 2983 2984 2984 2985 2986 2987 2987 2986 2988 2990 2992 2993 2994 2994 2995 2997 2998 3000 3002 3005 3008 3010 3012 3014 3017 3019 3022 3024 3026 3028 3031 3032 3032 3034 3037 3041 3043 3044 3045 3047 3049 3050 3052 3054 3055 3057 3059 3061 3061 3063 3065 3066 3068 3070
3011 3008 3007 3006 3003 3001 3000 2998 2995 2993 2991 2990 2988 2987 2985 2984 2983 2982 2981 2981 2981 2981 2981 2981 2981 2982 2984 2982 2981 2981 2982 2981 2982 2983 2984 2985 2986 2987 2988 2987 2988 2990 2992 2993 2994 2995 2996 2997 2999 3001 3003 3005 3007 3009 3011 3013 3016 3018 3020 3022 3024 3026 3027 3027 3029 3033 3036 3037 3038 3040 3041 3042 3044 3046 3047 3049 3051 3053 3055 3056 3057 3059 3060 3062 3064 3066
3012 3010 3007 3006 3004 3001 2999 2997 2995 2993 2990 2988 2986 2985 2984 2983 2982 2980 2981 2981 2981 2980 2980 2981 2981 2982 2983 2981 2979 2980 2981 2980 2980 2981 2983 2985 2985 2987 2988 2988 2988 2989 2991 2992 2994 2995 2996 2997 2999 3001 3003 3005 3007 3009 3011 3012 3015 3017 3019 3022 3024 3025 3024 3025 3028 3032 3033 3033 3034 3036 3037 3038 3039 3040 3042 3044 3047 3048 3050 3051 3052 3054 3056 3058 3060 3062
3014 3012 3010 3007 3005 3003 3001 2999 2997 2994 2991 2988 2986 2984 2982 2981 2980 2980 2981 2981 2980 2980 2980 2980 2981 2982 2982 2980 2979 2980 2980 2979 2979 2980 2982 2983 2985 2986 2988 2989 2988 2989 2991 2992 2993 2995 2996 2997 2999 3001 3003 3005 3006 3008 3010 3012 3014 3016 3018 3020 3022 3022 3023 3024 3025 3027 3029 3030 3031 3032 3033 3034 3035 3037 3039 3041 3043 3044 3046 3047 3048 3049 3051 3054 3056 3058
3016 3014 3012 3010 3008 3006 3004 3001 2998 2994 2991 2988 2987 2985 2982 2981 2980 2980 2980 2980 2980 2979 2979 2980 2981 2981 2981 2981 2980 2980 2979 2979 2979 2980 2981 2983 2984 2986 2987 2989 2990 2990 2991 2992 2993 2994 2995 2997 2999 3001 3003 3004 3005 3007 3009 3011 3012 3014 3016 3018 3018 3019 3020 3021 3022 3023 3025 3026 3027 3028 3029 3030 3032 3034 3036 3037 3039 3041 3042 3043 3043 3045 3048 3050 3052 3055
3017 3015 3013 3011 3009 3007 3005 3002 2998 2995 2992 2990 2988 2986 2983 2981 2980 2980 2980 2979 2979 2979 2979 2980 2981 2981 2980 2980 2980 2980 2979 2979 2979 2980 2980 2981 2984 2986 2987 2988 2990 2991 2992 2992 2992 2993 2995 2997 2999 3001 3002 3004 3005 3006 3007 3009 3010 3011 3013 3013 3014 3015 3016 3017 3018 3019 3019 3020 3021 3023 3024 3025 3027 3028 3030 3031 3033 3036 3038 3039 3040 3042 3045 3048 3049 3052
3017 3016 3014 3012 3010 3007 3004 3001 2999 2996 2993 2991 2989 2987 2985 2982 2981 2980 2979 2979 2978 2978 2978 2979 2980 2981 2980 2979 2978 2979 2979 2979 2979 2979 2978 2979 2982 2985 2986 2987 2988 2989 2991 2992 2992 2993 2995 2996 2998 3000 3001 3002 3003 3004 3005 3006 3007 3007 3008 3009 3010 3011 3011 3012 3013 3013 3014 3015 3015 3016 3017 3020 3022 3023 3024 3025 3027 3029 3033 3035 3036 3039 3043 3046 3047 3048
3017 3016 3014 3012 3011 3009 3006 3003 3001 2999 2996 2993 2990 2988 2985 2983 2982 2980 2979 2979 2979 2979 2978 2979 2979 2980 2979 2978 2977 2977 2977 2978 2979 2980 2979 2980 2982 2984 2985 2986 2987 2988 2989 2991 2992 2994 2995 2996 2997 2998 2999 2999 3000 3001 3002 3002 3003 3003 3004 3005 3005 3006 3006 3007 3008 3008 3008 3009 3009 3010 3011 3012 3015 3018 3020 3021 3021 3024 3028 3032 3033 3036 3039 3041 3042 3044
3019 3017 3015 3013 3011 3008 3006 3002 2999 2997 2995 2994 2992 2989 2987 2985 2983 2981 2980 2980 2979 2979 2979 2979 2979 2978 2978 2977 2976 2976 2976 2977 2978 2979 2980 2980 2981 2983 2984 2986 2987 2988 2989 2990 2991 2992 2993 2994 2994 2995 2996 2996 2997 2998 2999 2999 2999 3000 3000 3000 3001 3001 3001 3002 3002 3002 3003 3003 3003 3004 3004 3006 3009 3012 3014 3016 3017 3019 3023 3028 3031 3034 3036 3037 3039 3042
3020 3017 3016 3013 3010 3008 3006 3003 3000 2997 2996 2995 2993 2991 2989 2987 2985 2983 2982 2981 2980 2979 2980 2980 2979 2978 2978 2976 2975 2975 2975 2976 2976 2978 2979 2980 2980 2982 2983 2984 2986 2987 2988 2989 2990 2990 2991 2991 2991 2992 2993 2993 2994 2995 2996 2996 2996 2996 2996 2996 2996 2996 2996 2997 2997 2997 2998 2997 2998 2998 3000 3002 3004 3006 3009 3011 3014 3016 3019 3023 3027 3031 3033 3035 3037 3040
3021 3019 3016 3014 3012 3010 3008 3006 3004 3002 3000 2997 2995 2993 2992 2989 2987 2985 2984 2983 2981 2980 2980 2979 2979 2978 2977 2976 2974 2975 2975 2975 2975 2976 2977 2978 2979 2980 2981 2982 2984 2985 2986 2987 2988 2988 2988 2989 2989 2989 2989 2990 2990 2991 2991 2992 2992 2992 2992 2992 2992 2992 2992 2992 2992 2992 2993 2993 2993 2994 2996 2998 3001 3003 3005 3007 3010 3013 3016 3019 3022 3025 3028 3031 3034 3037